EW1697 Weather Reports


Display with metric or nautical units.
time (UTC)temp
F
wind
direction
speed
MPH
gust
MPH
rain 1hr
in
rain 24hr
in
rain mn
in
humidity
%
barometer
mb
20260506181557 72 309 1.0 5.0 0.00 0.00 0.00 54 1019.4
20260506180041 71 297 0.0 3.0 0.00 0.00 0.00 56 1019.3
20260506174536 69 335 0.0 3.0 0.00 0.00 0.00 58 1019.4
20260506173055 70 170 0.0 3.0 0.00 0.00 0.00 58 1019.4
20260506171628 68 246 0.0 2.0 0.00 0.00 0.00 62 1019.6
20260506170026 66 300 0.0 4.0 0.00 0.00 0.00 65 1019.8
20260506164520 64 342 0.0 3.0 0.00 0.00 0.00 67 1019.9
20260506163024 63 344 0.0 4.0 0.00 0.00 0.00 68 1019.9
20260506161517 63 353 0.0 2.0 0.00 0.00 0.00 69 1020.1
20260506160014 62 10 0.0 3.0 0.00 0.00 0.00 72 1020.1
20260506154510 61 320 0.0 2.0 0.00 0.00 0.00 73 1020.3
20260506153006 60 20 0.0 1.0 0.00 0.00 0.00 76 1020.4
20260506151507 58 25 0.0 1.0 0.00 0.00 0.00 77 1020.5
20260506150100 57 79 0.0 2.0 0.00 0.00 0.00 78 1020.5
20260506144604 55 28 0.0 3.0 0.00 0.00 0.00 80 1020.5
20260506143053 54 56 0.0 1.0 0.00 0.00 0.00 82 1020.6
20260506141548 53 85 0.0 1.0 0.00 0.00 0.00 86 1020.5
20260506140045 51 85 0.0 1.0 0.00 0.00 0.00 90 1020.3
20260506134543 48 109 0.0 1.0 0.00 0.00 0.00 91 1020.2
20260506133055 48 206 0.0 0.0 0.00 0.00 0.00 90 1020.0
20260506131538 48 177 0.0 0.0 0.00 0.00 0.00 90 1019.9
20260506130039 48 177 0.0 0.0 0.00 0.00 0.00 89 1019.8
20260506124534 49 177 0.0 0.0 0.00 0.00 0.00 89 1019.5
20260506123033 50 177 0.0 0.0 0.00 0.00 0.00 89 1019.6
20260506121531 50 177 0.0 1.0 0.00 0.00 0.00 89 1019.5
20260506120032 50 353 0.0 0.0 0.00 0.00 0.00 89 1019.4
20260506114529 50 27 0.0 3.0 0.00 0.00 0.00 91 1019.3
20260506113128 48 63 0.0 1.0 0.00 0.00 0.00 90 1019.2
20260506111526 49 340 0.0 3.0 0.00 0.00 0.00 91 1019.1
20260506110026 48 158 0.0 0.0 0.00 0.00 0.00 90 1019.0
20260506104551 49 158 0.0 0.0 0.00 0.00 0.00 89 1019.0
20260506103024 49 160 0.0 0.0 0.00 0.00 0.00 89 1018.9
20260506101520 49 200 0.0 0.0 0.00 0.00 0.00 88 1018.8
20260506100021 50 200 0.0 1.0 0.00 0.00 0.00 87 1018.9
20260506094524 51 212 0.0 0.0 0.00 0.00 0.00 88 1019.0
20260506093019 51 212 0.0 1.0 0.00 0.00 0.00 88 1019.1
20260506091518 51 153 0.0 2.0 0.00 0.00 0.00 88 1019.2
20260506090015 51 231 0.0 2.0 0.00 0.00 0.00 88 1019.1
20260506084513 51 85 1.0 5.0 0.00 0.00 0.00 91 1019.0
20260506083018 50 176 0.0 2.0 0.00 0.00 0.00 91 1019.1
20260506081509 48 146 0.0 1.0 0.00 0.00 0.00 92 1019.2
20260506073100 48 149 0.0 1.0 0.00 0.00 0.00 92 1018.8
20260506071620 48 143 0.0 2.0 0.00 0.00 0.00 91 1018.7
20260506061547 48 160 0.0 0.0 0.00 0.00 0.00 90 1018.3
20260506044536 51 163 0.0 0.0 0.00 0.00 0.00 86 1017.7
20260506043031 52 158 0.0 1.0 0.00 0.00 0.00 87 1017.5
20260506041529 51 158 0.0 1.0 0.00 0.00 0.00 86 1017.4
20260506040041 52 158 0.0 0.0 0.00 0.00 0.00 84 1017.2
20260506034526 54 158 0.0 1.0 0.00 0.00 0.00 84 1017.1
20260506033027 54 203 0.0 0.0 0.00 0.00 0.00 82 1016.7
20260506031522 55 203 0.0 0.0 0.00 0.00 0.00 81 1016.3
20260506030022 56 300 0.0 2.0 0.00 0.00 0.00 80 1016.1
20260506024528 57 264 0.0 1.0 0.00 0.00 0.00 79 1015.9
20260506023020 57 330 0.0 3.0 0.00 0.00 0.00 78 1016.0
20260506021538 58 312 0.0 5.0 0.00 0.00 0.00 76 1015.9
20260506020020 60 261 1.0 6.0 0.00 0.00 0.00 73 1015.8
20260506014523 61 309 0.0 4.0 0.00 0.00 0.00 70 1015.7
20260506013018 62 254 0.0 3.0 0.00 0.00 0.00 69 1015.7
20260506011523 60 342 0.0 5.0 0.00 0.00 0.00 71 1015.7
20260506010014 60 284 0.0 5.0 0.00 0.00 0.00 71 1015.7
20260506004512 61 234 1.0 4.0 0.00 0.00 0.00 70 1015.7
20260506003012 61 20 1.0 4.0 0.00 0.00 0.00 68 1015.6
20260506001513 61 194 0.0 2.0 0.00 0.00 0.00 68 1015.6
20260506000008 61 352 0.0 3.0 0.00 0.00 0.00 68 1015.5
20260505234513 61 158 0.0 5.0 0.00 0.00 0.00 69 1015.5
20260505233008 61 34 1.0 4.0 0.00 0.00 0.00 67 1015.6
20260505231508 62 322 0.0 4.0 0.00 0.00 0.00 67 1015.5
20260505230007 62 344 0.0 4.0 0.00 0.00 0.00 67 1015.4
20260505224510 62 304 0.0 3.0 0.00 0.00 0.00 66 1015.6
20260505223007 62 219 0.0 3.0 0.00 0.00 0.00 68 1015.9
20260505221505 60 23 0.0 3.0 0.00 0.00 0.00 69 1015.9
20260505220004 61 350 0.0 4.0 0.00 0.00 0.00 68 1015.9
20260505214502 61 6 1.0 6.0 0.00 0.00 0.00 68 1016.0
20260505213100 61 17 1.0 8.0 0.00 0.00 0.00 66 1016.1
20260505211634 62 19 1.0 6.0 0.00 0.00 0.00 66 1016.1
20260505210057 61 322 2.0 6.0 0.00 0.00 0.00 66 1016.0
20260505204557 61 326 0.0 7.0 0.00 0.00 0.00 65 1016.1
20260505203119 62 334 0.0 2.0 0.00 0.00 0.00 66 1016.2
20260505201552 62 9 0.0 5.0 0.00 0.00 0.00 65 1016.1
20260505200050 61 1 1.0 5.0 0.00 0.00 0.00 67 1016.1
20260505194550 61 341 0.0 5.0 0.00 0.00 0.00 67 1016.4
20260505193149 61 283 0.0 2.0 0.00 0.00 0.00 68 1016.2
20260505191551 59 337 0.0 3.0 0.00 0.00 0.00 71 1016.3
20260505190046 58 161 0.0 2.0 0.00 0.00 0.00 71 1016.4
20260505184550 57 251 0.0 3.0 0.00 0.00 0.00 74 1016.3
20260505183048 57 262 0.0 2.0 0.00 0.00 0.00 73 1016.5